Regional Weather Roundup
Issued by NWS Portland, ME

Current Version | Previous Version | Text Only | Print | Product List | Glossary Off
Versions: 1 2 3 4 5 6 7 8 9 10 11 12 13 14 15 16 17 18 19 20 21 22 23 24 25 26 27 28 29 30 31 32 33 34 35 36 37 38 39 40 41 42 43 44 45 46 47 48 49 50
000 ASUS41 KGYX 212305 RWRGYX WEATHER ROUNDUP FOR MAINE AND NEW HAMPSHIRE NATIONAL WEATHER SERVICE GRAY ME 700 PM EDT THU MAR 21 2019 MEZ002-005-006-010-012-015-018-020-021-024-026-027-029-220000- MAINE CITY SKY/WX TMP DP RH WIND PRES REMARKS PORTLAND CLOUDY 40 31 70 SE10 30.06F SANFORD CLOUDY 39 30 70 VRB5 30.04F BAR HARBOR FAIR 38 26 62 S9 30.12F WISCASSET FAIR 39 30 70 VRB5 30.09F ROCKLAND FAIR 36 31 82 SE6 30.10F FRYEBURG CLOUDY 41 26 55 SE5 30.02F LEWISTONAUBURN CLOUDY 39 28 64 SE6 30.05F AUGUSTA CLOUDY 40 24 53 SE7 30.07F WATERVILLE CLOUDY 40 22 48 VRB6 30.03F BANGOR CLOUDY 39 24 55 S12 30.08F GREENVILLE N/A 37 21 52 S9G18 29.96F MILLINOCKET CLOUDY 41 22 46 VRB3 30.05R HOULTON CLOUDY 42 18 37 S13G22 30.03F PRESQUE ISLE CLOUDY 41 22 46 S12 30.00S FRENCHVILLE CLOUDY 42 23 46 S12 29.92S CARIBOU CLOUDY 43 20 39 S12 29.97F $$ NHZ002-005-008-009-011-012-014-220000- NEW HAMPSHIRE CITY SKY/WX TMP DP RH WIND PRES REMARKS ROCHESTER CLOUDY 40 29 64 SE6 30.03F NASHUA FAIR 46 25 43 SE6 30.00F MANCHESTER CLOUDY 46 22 38 SE9 29.99F CONCORD CLOUDY 44 26 49 SE8 30.00F LACONIA CLOUDY 42 29 59 E5 30.00F PLYMOUTH CLOUDY 45 27 50 CALM 29.99S BERLIN CLOUDY 41 26 55 S9 29.95F WHITEFIELD MOCLDY 44 24 45 S7 29.94F JAFFREY CLOUDY 42 28 57 VRB3 29.96F KEENE CLOUDY 40 36 86 CALM 29.97F LEBANON LGT RAIN 39 33 79 CALM 29.98F MT WASHINGTON FOG 25 25 100 SW25G36 N/A VSB 1/8 WCI 9 $$ VTZ005-007-008-220000- VERMONT CITY SKY/WX TMP DP RH WIND PRES REMARKS ST JOHNSBURY N/A 43 30 60 MISG 29.93F MONTPELIER FAIR 36 33 89 S9 29.98F BURLINGTON CLOUDY 43 34 70 S9 29.92F $$ MAZ007-012-024-CTZ003-RIZ002-NYZ038-NYZ072-220000- SOUTHERN NEW ENGLAND AND NY CITY SKY/WX TMP DP RH WIND PRES REMARKS BOSTON CLOUDY 43 35 73 E18 30.03F WORCESTER CLOUDY 42 32 67 SE8 29.96F NANTUCKET FAIR 41 35 79 E13 29.99F HARTFORD MOCLDY 47 33 58 E8 29.94F ALBANY CLOUDY 42 35 76 E3 29.94F NEW YORK CITY LGT RAIN 42 38 85 NE16 29.83F FOG $$ ANZ081-ANZ082-ANZ150-NHZ014-MEZ023>029-220000- COASTAL MARINE OBSERVATIONS STATION/POSITION TIME TEMP WIND PRES WAVE AIR SEA DIR/SP/G HT/PER (UTC) (F) (DEG/KT/KT) (MB) (FT/S) MOUNT DESERT ROC 2200 39 140/ 11/ 12 1020.9 MATINICUS ROCK 2200 38 140/ 10/ 11 1019.6 ISLE OF SHOALS 2200 40 130/ 17/ 18 1017.2 CASHES LEDGE BUO 2150 39 40 1019.9 3/ 5 $$ .............KEY.............. WCI - WIND CHILL TC - TEMPERATURE IN CELSIUS VSB - VISIBILITY IN MILES HX - HEAT INDEX FAIR- INDICATES FEW OR NO CLOUDS BELOW 12,000 FT, WITH NO SIGNIFICANT WEATHER AND/OR OBSTRUCTIONS TO VISIBILITY.

USA.gov is the U.S. government's official web portal to all federal, state and local government web resources and services.